Hors Challenge

Le Lampiris Averbode Nature Trail à Averbode (16.00 km)

samedi 06 octobre 2018

Le Classement original se trouve sur : http://www.chronorace.be
 
LE LAMPIRIS AVERBODE NATURE TRAIL
DISTANCE : 15.91 km
samedi 06 octobre 2018
 
Place Dos NOM Catégorie Pl/cat temps temps/km Vitesse
1 1266 JOOKEN DIETER SH 1 1:02:43 03:57 15.22
2 1182 HERREMANS RIK SH 2 1:03:19 03:59 15.08
3 1339 JOOSTENS JASPER-FREDERIK SH 3 1:03:57 04:01 14.93
4 1398 VERVECKEN JO SH 4 1:05:59 04:09 14.47
5 1356 RECOUR LAURENT V1 1 1:06:23 04:10 14.38
6 1411 BAEYENS KURT SH 5 1:07:21 04:14 14.17
7 1327 DE COCK SIMON SH 6 1:10:08 04:25 13.61
8 1375 WOUTERS STEFAAN V1 2 1:10:29 04:26 13.54
9 1183 HYE TIM SH 7 1:10:53 04:27 13.47
10 1126 BIESEMANS TOON SH 8 1:11:23 04:29 13.37
11 1341 GEUNS RIK SH 9 1:11:36 04:30 13.33
12 1143 SMETS DAMIEN SH 10 1:12:49 04:35 13.11
13 1322 RENS JONATHAN SH 11 1:12:59 04:35 13.08
14 1162 VANDEPUT JAN V2 1 1:13:03 04:36 13.07
15 1050 SWINNEN STEVE SH 12 1:13:34 04:37 12.98
16 1308 KENNETH BOONROOY SH 13 1:13:46 04:38 12.94
17 1276 JAN MERTENS SH 14 1:14:33 04:41 12.80
18 1052 MEUKENS KRIS SH 15 1:14:43 04:42 12.78
19 1376 VAN THIELEN BART V2 2 1:15:44 04:46 12.60
20 1035 VANDENPANHUYZEN LUK V1 3 1:15:49 04:46 12.59
21 1271 MEEUS BENNY V2 3 1:16:04 04:47 12.55
22 1208 VERMEEREN MARLIES SD 1 1:16:12 04:47 12.53
23 1366 VAN DE WEYER JENTE JH 1 1:16:17 04:48 12.51
24 1267 OOMS STIJN SH 16 1:16:26 04:48 12.49
25 1316 KOEN SCHOOLMEESTERS V2 4 1:16:27 04:48 12.49
26 1088 PEETERS GUY V1 4 1:16:31 04:49 12.48
27 1125 BOELS HELENE SD 2 1:16:45 04:49 12.44
28 1108 HAEMELS ARNOUT SH 17 1:16:49 04:50 12.43
29 1379 VERCAMMEN EDWIN V1 5 1:16:51 04:50 12.42
30 1348 DEBOECK MAAIKE SD 3 1:16:53 04:50 12.42
31 1254 RAETS MATHIAS SH 18 1:17:06 04:51 12.38
32 1117 PEETERMANS MATHIAS SH 19 1:17:24 04:52 12.33
33 1305 JASPERS JOOST SH 20 1:17:25 04:52 12.33
34 1097 DUCHATELET JEAN-CHARLES V1 6 1:17:29 04:52 12.32
35 1087 BRONZWAER PETER SH 21 1:17:33 04:52 12.31
36 1110 WEYGAERTS STIJN V1 7 1:17:35 04:53 12.30
37 1131 VAN RENSBERGEN THOMAS SH 22 1:18:02 04:54 12.23
38 1371 HOOF GEERT SH 23 1:18:27 04:56 12.17
39 1257 CORMAN TOM V1 8 1:18:29 04:56 12.16
40 1418 GULDENTOPS STIJN SH 24 1:18:44 04:57 12.12
41 1059 DE SANCTIS GUIDO SH 25 1:18:45 04:57 12.12
42 1333 WOUT VERMEEREN SH 26 1:18:49 04:57 12.11
43 1370 HEYLEN STEVEN SH 27 1:18:50 04:57 12.11
44 1061 NAUWELAERTS RIK SH 28 1:18:52 04:57 12.10
45 1215 STALMANS ROEL SH 29 1:18:53 04:58 12.10
46 1141 BROUX PETER V1 9 1:19:10 04:59 12.06
47 1193 GRESSENS JAN SH 30 1:19:11 04:59 12.05
48 1295 VERHOEVEN GERRIT SH 31 1:20:44 05:04 11.82
49 1093 PHILIPPAERTS WENDY A1 1 1:20:45 05:05 11.82
50 1094 PHILIPPAERTS ANDY V1 10 1:21:01 05:06 11.78
51 1352 MIGNON CINDY A1 2 1:21:05 05:06 11.77
52 1342 BEVERS WALTER V2 5 1:21:13 05:06 11.75
53 1302 BEVERS BART V2 6 1:21:19 05:07 11.74
54 1128 DE BLOCK DRIES SH 32 1:21:20 05:07 11.74
55 1343 BROSENS MARC V2 7 1:21:21 05:07 11.73
56 1296 VANSPAUWEN KAATJE SD 4 1:21:26 05:07 11.72
57 1360 DAEMS DRIES SH 33 1:22:00 05:09 11.64
58 1420 NR 1420 XXX   1:22:04 05:10 11.63
59 1005 VAN HOVE FREDERIK V3 1 1:22:17 05:10 11.60
60 1362 SMET KRISTOF SH 34 1:22:26 05:11 11.58
61 1071 VAN DE LEEST TOM V1 11 1:22:26 05:11 11.58
62 1068 CAMMAER KWINTEN SH 35 1:22:32 05:11 11.57
63 1255 MERTENS JAN V1 12 1:22:33 05:11 11.56
64 1031 DOMINIQUE VANDERWAEREN V1 13 1:22:51 05:12 11.52
65 1137 SPAEPEN BART V1 14 1:22:52 05:13 11.52
66 1340 VANDENBOSSCHE WIM SH 36 1:22:56 05:13 11.51
67 1229 STERCKX KRISTOF SH 37 1:23:03 05:13 11.49
68 1157 VAN NESTE BART V2 8 1:23:04 05:13 11.49
69 1280 VAN ELSEN WOUTER SH 38 1:23:06 05:13 11.49
70 1134 DESCHOENMAEKERS TIMORY SH 39 1:23:18 05:14 11.46
71 1083 VERSTERREN STÉPHANE SH 40 1:23:18 05:14 11.46
72 1070 DE LOBEL TOM SH 41 1:23:19 05:14 11.46
73 1307 HEYLEN NICK SH 42 1:23:32 05:15 11.43
74 1349 PERPEET SABRINA A1 3 1:23:42 05:16 11.40
75 1355 RENWART SIMON SH 43 1:23:47 05:16 11.39
76 1037 ARGOS THOMAS SH 44 1:23:48 05:16 11.39
77 1288 ARGOS SIMON SH 45 1:24:05 05:17 11.35
78 1283 DE BEUKELAER NATHALIE SD 5 1:24:13 05:18 11.33
79 1284 DEBOTH ELINE SD 6 1:24:14 05:18 11.33
80 1409 VANLOFFELT PETER V2 9 1:24:15 05:18 11.33
81 1140 VANDEWEYER PATRICK V2 10 1:24:16 05:18 11.33
82 1079 LEENEN MICHEL V2 11 1:24:25 05:18 11.31
83 1297 FREDERICKX SVEN SH 46 1:24:29 05:19 11.30
84 1118 VANSCHOENBEEK BART V1 15 1:24:30 05:19 11.30
85 1248 VERBEECK GLENN SH 47 1:24:34 05:19 11.29
86 1076 VERHOEVEN KRISTOF SH 48 1:24:41 05:19 11.27
87 1382 DE HAAN IVO SH 49 1:24:44 05:20 11.27
88 1030 SMOLDERS JOHAN V2 12 1:24:52 05:20 11.25
89 1388 VERLUYTEN VERA A2 1 1:24:54 05:20 11.24
90 1384 TEUNKENS KAREL V3 2 1:25:08 05:21 11.21
91 1351 PERSIAU GEERT V1 16 1:25:19 05:22 11.19
92 1303 ROEL DEKENS V3 3 1:25:34 05:23 11.16
93 1096 VAN MEEUWEN NEAL SH 50 1:25:46 05:23 11.13
94 1130 FEREMANS DAVID V1 17 1:25:51 05:24 11.12
95 1175 FEREMANS JOERI V1 18 1:25:52 05:24 11.12
96 1368 VANDERAERDEN WIM V1 19 1:26:10 05:25 11.08
97 1051 MORIAS WIM SH 51 1:26:22 05:26 11.05
98 1072 VANDERSMISSEN JORIS SH 52 1:26:24 05:26 11.05
99 1287 PEPERKAMP WOUT SH 53 1:26:31 05:26 11.03
100 1080 DESTREEL DAG V1 20 1:26:43 05:27 11.01
101 1335 PELGRIMS BERT V1 21 1:26:45 05:27 11.00
102 1227 NR 1227 XXX   1:26:50 05:27 10.99
103 1332 DE VYLDER FRÉDÉRIC SH 54 1:27:19 05:29 10.93
104 1239 WYNANTS JESSE SH 55 1:27:21 05:29 10.93
105 1243 CONINX CARL SH 56 1:27:25 05:30 10.92
106 1177 CLAEREBOUDT JAN V2 13 1:27:27 05:30 10.92
107 1086 LEYS CINDY A1 4 1:27:30 05:30 10.91
108 1242 CONVALLE MAURO V1 22 1:27:31 05:30 10.91
109 1075 GOEBELS IVAN V1 23 1:27:40 05:31 10.89
110 1121 CUYPERS JAN SH 57 1:27:41 05:31 10.89
111 1169 TOREMANS FRANK V1 24 1:27:52 05:31 10.86
112 1172 VAN DEN BRANDE MARIO SH 58 1:27:57 05:32 10.85
113 1149 PEENE BERNARD SH 59 1:28:16 05:33 10.81
114 1147 MENGELS BART V1 25 1:28:20 05:33 10.81
115 1410 BELLEKENS KARL V1 26 1:28:41 05:34 10.76
116 1314 VAN MELLAERT KENNY SH 60 1:28:41 05:34 10.76
117 1423 VANDEWEYER HANS V1 27 1:28:42 05:35 10.76
118 1372 DIERICK CÉDRIC SH 61 1:28:54 05:35 10.74
119 1196 STEYNEN NICK V1 28 1:28:57 05:35 10.73
120 1066 VANKERKHOVEN JIMMIE SD 7 1:29:14 05:37 10.70
121 1238 SPRUYT LUC V2 14 1:29:25 05:37 10.68
122 1049 DEKORT AN A1 5 1:29:38 05:38 10.65
123 1077 VAN DE LAER PIETER SH 62 1:29:39 05:38 10.65
124 1212 BALLET BERT V1 29 1:29:45 05:38 10.64
125 1318 VAN LOOK BERT V2 15 1:30:02 05:40 10.60
126 1210 OOMS NAND SH 63 1:30:06 05:40 10.59
127 1133 JO DANNIAU V3 4 1:30:22 05:41 10.56
128 1233 CLAES JOHAN V1 30 1:30:27 05:41 10.55
129 1246 VERBOVEN FILIP SH 64 1:30:36 05:42 10.54
130 1262 VANGEEL NIELS SH 65 1:30:38 05:42 10.53
131 1074 VERELST ANIK SD 8 1:30:39 05:42 10.53
132 1198 DE CEUSTER JOHNNY ISIDOOR V1 31 1:30:51 05:43 10.51
133 1364 VISSERS YANNICK SH 66 1:31:04 05:43 10.48
134 1171 SWINNEN GEERT SH 67 1:31:08 05:44 10.47
135 1044 CLEMENS KURT SH 68 1:31:13 05:44 10.46
136 1317 BUSSELS JO V1 32 1:31:13 05:44 10.46
137 1256 WILKS HELEN SD 9 1:31:13 05:44 10.46
138 1060 VERHAEGEN STEVEN V1 33 1:31:27 05:45 10.44
139 1397 VERSCHUEREN CHRISTINE A1 6 1:31:32 05:45 10.43
140 1048 MICHIELSEN GUIDO V2 16 1:31:36 05:45 10.42
141 1378 DE JAEGHER FILIP V1 34 1:31:37 05:46 10.42
142 1326 DE BODT GEOFFREY SH 69 1:31:59 05:47 10.38
143 1325 DE PRETER LIEVEN V2 17 1:32:00 05:47 10.38
144 1017 AIGNER GEORG SH 70 1:32:02 05:47 10.37
145 1203 BRIFFAERTS JAN V1 35 1:32:03 05:47 10.37
146 1386 VAN AERSCHOT PIETER V1 36 1:32:04 05:47 10.37
147 1380 BOLLEN WALTER V1 37 1:32:17 05:48 10.34
148 1298 MODESTI DANIELE V1 38 1:32:23 05:48 10.33
149 1034 DIERCKX LAURA SD 10 1:32:31 05:49 10.32
150 1092 VAN PRAET KRISTOF SH 71 1:32:38 05:49 10.30
151 1278 VAN DE WALLE KEVIN SH 72 1:32:43 05:50 10.30
152 1324 VAN DE WALLE WESLEY SH 73 1:32:44 05:50 10.29
153 1406 VANHAESEBROUCK WOUTER SH 74 1:32:44 05:50 10.29
154 1158 GEERTS BEN SH 75 1:32:46 05:50 10.29
155 1282 DE SMEDT DRIES SH 76 1:32:54 05:50 10.28
156 1354 VAN DEN BERGH JULIE SD 11 1:33:14 05:52 10.24
157 1353 CATTEEUW KELLY A1 7 1:33:15 05:52 10.24
158 1344 ERIS ERIK V2 18 1:33:18 05:52 10.23
159 1056 VANGEEL BERT V1 39 1:33:22 05:52 10.22
160 1007 THEEUWES FILIP V2 19 1:33:26 05:52 10.22
161 1120 DEBACK ANDREW SH 77 1:33:30 05:53 10.21
162 1219 CLERCKX RUBEN SH 78 1:33:34 05:53 10.20
163 1089 JERAL NIELS SH 79 1:33:35 05:53 10.20
164 1063 DILS DIRK V2 20 1:33:37 05:53 10.20
165 1199 SPOORMANS MICHIEL SH 80 1:33:40 05:53 10.19
166 1127 VAN REETH MELANIE SD 12 1:33:47 05:54 10.18
167 1290 DE CEULAER MIET SD 13 1:33:48 05:54 10.18
168 1413 DE MEY JIM V2 21 1:33:51 05:54 10.17
169 1146 VAN LIERDE BERND SH 81 1:34:05 05:55 10.15
170 1099 TEUNCKENS NANCY SD 14 1:34:09 05:55 10.14
171 1363 SEYKENS JONAS SH 82 1:34:18 05:56 10.12
172 1403 DE HERDT ROBIN SH 83 1:34:21 05:56 10.12
173 1345 DEMARSIN BERT SH 84 1:34:24 05:56 10.11
174 1021 MARTENS PIETER SH 85 1:34:39 05:57 10.09
175 1236 BELLEKENS KATRIEN SD 15 1:34:47 05:57 10.07
176 1164 LOUX LUC V2 22 1:34:56 05:58 10.05
177 1263 SYNOWIEC DOROTA A1 8 1:35:03 05:58 10.04
178 1022 VANLOFFELT JORIJN SH 86 1:35:11 05:59 10.03
179 1407 WIM SCHELLENS SH 87 1:35:16 05:59 10.02
180 1025 LACROIX ELLEN A1 9 1:35:18 05:59 10.02
181 1387 BAKKER CHRIS V2 23 1:35:22 06:00 10.01
182 1311 DE GRAEF PIETER SH 88 1:35:25 06:00 10.00
183 1178 VAN GESTEL JOHAN V2 24 1:35:36 06:01 9.98
184 1259 HANNAH EHRINGER SD 16 1:35:36 06:01 9.98
185 1359 EMBRECHTS KIM SD 17 1:35:41 06:01 9.98
186 1358 ASSELBERGHS BJORN SH 89 1:35:44 06:01 9.97
187 1024 VEKEMANS ELLEN SD 18 1:35:49 06:01 9.96
188 1310 VERBRAEKEN ANJA A1 10 1:35:53 06:02 9.96
189 1023 VAN KELECOM DIRK V2 25 1:36:01 06:02 9.94
190 1145 JOCHMANS LUC V2 26 1:36:02 06:02 9.94
191 1211 MEUWIS STIJN V1 40 1:36:18 06:03 9.91
192 1170 VANWETSWINKEL KRISTOF SH 90 1:36:24 06:04 9.90
193 1055 CICERO GIOVANNI V2 27 1:36:32 06:04 9.89
194 1309 RAVESCHOT IGNACE V1 41 1:36:34 06:04 9.88
195 1103 SMETS FRANKIE V1 42 1:36:37 06:04 9.88
196 1036 HUYBREGHTS ANS A1 11 1:36:38 06:04 9.88
197 1019 FROONINCKX INDRA SD 19 1:36:46 06:05 9.86
198 1091 JANSSENS ALAIN V2 28 1:37:06 06:06 9.83
199 1264 VAN KEYENBERG WILLIAM V1 43 1:37:08 06:06 9.83
200 1252 STOFFELS RONALD V3 5 1:37:09 06:06 9.83
201 1402 PEETERMANS JOHAN V2 29 1:37:10 06:06 9.82
202 1237 VERLINDEN STEVEN V1 44 1:37:11 06:07 9.82
203 1186 VERSMISSEN LUC V1 45 1:37:13 06:07 9.82
204 1275 EMSENS LIEZELOTTE SD 20 1:37:14 06:07 9.82
205 1234 VAN KOOLWIJCK FLORIAN SH 91 1:37:14 06:07 9.82
206 1001 DHANIS DORIEN SD 21 1:37:19 06:07 9.81
207 1207 VANDER AA SANDER SH 92 1:37:33 06:08 9.79
208 1241 MERKS TOM SH 93 1:37:54 06:09 9.75
209 1165 BOSSY FILIP V2 30 1:37:57 06:09 9.75
210 1151 CULOT DENNIS SH 94 1:38:01 06:10 9.74
211 1408 VAN DEN BERGH STEVEN SH 95 1:38:12 06:10 9.72
212 1240 BECKERS CHRISTOPHE SH 96 1:38:17 06:11 9.71
213 1123 PASTIJN ELS A1 12 1:38:20 06:11 9.71
214 1249 D'HOORE BEN SH 97 1:38:26 06:11 9.70
215 1173 VAN HAUWE TOM V1 46 1:38:29 06:11 9.69
216 1153 BOELAERTS JAN V2 31 1:38:46 06:12 9.66
217 1136 DE BOEVER JOHAN V3 6 1:38:52 06:13 9.65
218 1281 SWOLFS KRISTOF SH 98 1:38:54 06:13 9.65
219 1174 SCHOOFS RUDY V1 47 1:38:59 06:13 9.64
220 1148 VAN DER BREMPT OLIVIER SH 99 1:39:00 06:13 9.64
221 1041 GYSBRECHTS BARBARA SD 22 1:39:05 06:14 9.63
222 1027 VOET STEFAN V1 48 1:39:09 06:14 9.63
223 1369 KUSTERS PETER V3 7 1:39:13 06:14 9.62
224 1188 STEVENS PATRICK V3 8 1:39:43 06:16 9.57
225 1291 VERBRUGGEN ELS A1 13 1:39:50 06:17 9.56
226 1232 VAN DER STAPPEN SVEN V1 49 1:39:50 06:17 9.56
227 1073 ROMMES FRANK V2 32 1:40:01 06:17 9.54
228 1299 COENEN KRIS SH 100 1:40:02 06:17 9.54
229 1045 CALLANT PAUL V3 9 1:40:11 06:18 9.53
230 1046 CALLANT TINEKE SD 23 1:40:12 06:18 9.53
231 1124 HÉROUFOSSE DANNY V1 50 1:40:15 06:18 9.52
232 1047 BERGÉ BENNY V2 33 1:40:18 06:18 9.52
233 1338 POTTIE HILDE V1 51 1:40:18 06:18 9.52
234 1058 VERBEKE IVO V3 10 1:40:36 06:19 9.49
235 1069 DAEMS INGRID A2 2 1:40:42 06:20 9.48
236 1002 KUYSTERMANS SABINE A1 14 1:40:43 06:20 9.48
237 1415 MELSENS FREDERIK V2 34 1:40:46 06:20 9.47
238 1184 HENDRICKX JEROEN V1 52 1:40:47 06:20 9.47
239 1357 CHRIS DE DEYN V2 35 1:40:52 06:20 9.46
240 1329 VANDERLOOY VALERIE A1 15 1:41:01 06:21 9.45
241 1195 DESMET TOM V1 53 1:41:06 06:21 9.44
242 1082 GEENS JOHAN V1 54 1:41:08 06:21 9.44
243 1081 CHEVAILLIER BARBARA A1 16 1:41:09 06:21 9.44
244 1014 VERHEYEN BJORN SH 101 1:41:15 06:22 9.43
245 1064 CROISET SOPHIE SD 24 1:41:27 06:23 9.41
246 1293 VAN ORSHOVEN JIMMY V1 55 1:41:27 06:23 9.41
247 1065 MICHOT MIKE SH 102 1:41:29 06:23 9.41
248 1405 LOOZEN ANNELIES SD 25 1:41:32 06:23 9.40
249 1039 DE CEULAER LEEN SD 26 1:41:40 06:23 9.39
250 1042 DE CEULAER MARTH SD 27 1:41:46 06:24 9.38
251 1330 SCHOTTE KATHLEEN A1 17 1:41:47 06:24 9.38
252 1321 AERTS CINDY SD 28 1:41:51 06:24 9.37
253 1161 RENDERS HANS SH 103 1:41:52 06:24 9.37
254 1412 CREMERS SANDER SH 104 1:41:53 06:24 9.37
255 1304 BOUILLIART CHRISTINE A2 3 1:41:54 06:24 9.37
256 1189 PETER DE BONDT V1 56 1:41:55 06:24 9.37
257 1122 DE BAL ILS A1 18 1:41:55 06:24 9.37
258 1253 GODDÉ FILIP V2 36 1:42:00 06:25 9.36
259 1187 RENARD KATHLEEN A1 19 1:42:01 06:25 9.36
260 1028 VANDERVENNET KRISTEL A1 20 1:42:13 06:26 9.34
261 1095 ROELAND RAYMOND V3 11 1:42:33 06:27 9.31
262 1244 VANCAUWENBERGH WILLY SH 105 1:42:33 06:27 9.31
263 1300 DE WITTE STANISLAS V2 37 1:43:05 06:29 9.26
264 1385 SEGHERS ERIC V2 38 1:43:21 06:30 9.24
265 1006 VAN 'T DACK THOMAS SH 106 1:43:34 06:31 9.22
266 1043 LINDEMANS PIETER V2 39 1:43:49 06:32 9.19
267 1331 VODERMANS ANJA A1 21 1:44:01 06:32 9.18
268 1313 COPS MIKHAEL V1 57 1:44:03 06:32 9.17
269 1114 GIELISSEN LIESBETH SD 29 1:44:14 06:33 9.16
270 1221 MANTELEERS AUKE SD 30 1:44:16 06:33 9.15
271 1292 VAN GOSSUM VEERLE A1 22 1:44:16 06:33 9.15
272 1312 VAN BEVER SIEGRID A1 23 1:44:17 06:33 9.15
273 1029 VERHOEVEN ELKE SD 31 1:44:44 06:35 9.11
274 1306 HENDRICKX RUDY V2 40 1:44:48 06:35 9.11
275 1230 SCHRAEPEN BENO V1 58 1:45:09 06:37 9.08
276 1085 MEYNS MARGO JF 1 1:45:29 06:38 9.05
277 1102 VANDERMEULEN FRANKY V1 59 1:45:35 06:38 9.04
278 1038 ROEBROECK NIO SH 107 1:45:38 06:38 9.04
279 1119 VERIS SILVIA SD 32 1:45:39 06:38 9.03
280 1084 VAN DER STEEN MYRIAM A1 24 1:45:40 06:39 9.03
281 1067 DRAYE JOOST SH 108 1:45:44 06:39 9.03
282 1421 ZALM HANS V1 60 1:45:46 06:39 9.03
283 1222 BIEKENS NICKY SH 109 1:45:56 06:40 9.01
284 1289 ROBIJNS MIEKE SD 33 1:46:04 06:40 9.00
285 1223 BORREMAN ROSELIE SD 34 1:46:06 06:40 9.00
286 1396 EFIMENKO ANASTASSIA SD 35 1:46:09 06:40 8.99
287 1020 BORREMAN HENK V2 41 1:46:20 06:41 8.98
288 1422 ZALM JACQUELINE A1 25 1:46:26 06:41 8.97
289 1168 MORIS BERT SH 110 1:46:31 06:42 8.96
290 1269 CARMELIET TINE SD 36 1:46:38 06:42 8.95
291 1132 T’SEYEN STEF SH 111 1:46:43 06:42 8.94
292 1277 BOCKX JORIS SH 112 1:46:44 06:43 8.94
293 1154 VAN LOOCK ALARY V3 12 1:46:56 06:43 8.93
294 1206 PARYS WOUTER SH 113 1:47:01 06:44 8.92
295 1336 MAES TIM SH 114 1:47:01 06:44 8.92
296 1100 VAN DER KANT ELS A2 4 1:47:04 06:44 8.92
297 1391 JANSSEN TINE SD 37 1:47:16 06:45 8.90
298 1301 SERRUYS EMMA A1 26 1:47:18 06:45 8.90
299 1106 NR 1106 XXX   1:47:18 06:45 8.90
300 1205 FELIX HOORNAERT SH 115 1:47:34 06:46 8.87
301 1361 MELAERTS MICHAEL V1 61 1:47:52 06:47 8.85
302 1190 DIDDENS ALEX V1 62 1:47:53 06:47 8.85
303 1414 STRYCKMANS CHRISTIAN V2 42 1:47:56 06:47 8.84
304 1350 LUYCKX FILIP V2 43 1:48:02 06:47 8.84
305 1040 DEWITTE GRIET SD 38 1:48:08 06:48 8.83
306 1389 JACOBS PETER V1 63 1:48:24 06:49 8.81
307 1216 CRAPS LOUISE A2 5 1:48:25 06:49 8.80
308 1390 NEETENS CAROLINE A1 27 1:48:27 06:49 8.80
309 1399 BIERWAERTS SERAFIEN SD 39 1:48:41 06:50 8.78
310 1191 SANTERMANS LIESELOT LOESJE SD 40 1:48:41 06:50 8.78
311 1185 BROUWERS TOM SH 116 1:48:51 06:51 8.77
312 1105 SWINGS KARINE A2 6 1:48:58 06:51 8.76
313 1328 WOUTERS KATHLEEN A1 28 1:49:06 06:51 8.75
314 1235 VANHAM ARNE SH 117 1:49:26 06:53 8.72
315 1273 PLUM LAURA SD 41 1:49:41 06:54 8.70
316 1057 VAN EECKHOUT LEEN SD 42 1:49:59 06:55 8.68
317 1201 SERRÉ LARA A1 29 1:50:06 06:55 8.67
318 1424 D'HONDT NICOLE A1 30 1:50:27 06:57 8.64
319 1181 JANSSENS LUK V1 64 1:50:37 06:57 8.63
320 1268 VETS VÉRONIQUE A1 31 1:50:55 06:58 8.61
321 1107 VANDER ELST INGRID A2 7 1:51:03 06:59 8.60
322 1373 DE WEVER STEPHANIE SD 43 1:51:08 06:59 8.59
323 1400 HERMANS FREDERIK SH 118 1:51:11 06:59 8.59
324 1417 BRUYNSEELS ANKE SD 44 1:51:20 07:00 8.57
325 1401 MACHIELS VERONIQUE SD 45 1:51:22 07:00 8.57
326 1226 HIELE MARTIN V3 13 1:51:35 07:01 8.55
327 1090 D'HAESE JESSIE SD 46 1:51:36 07:01 8.55
328 1377 MUËS ILSE A1 32 1:51:41 07:01 8.55
329 1213 LANGEN XENIA SD 47 1:51:50 07:02 8.54
330 1218 HAEX DAVID V1 65 1:51:57 07:02 8.53
331 1217 VANDEWYNCKELE BART V1 66 1:51:57 07:02 8.53
332 1346 VANLAER SOFIE SD 48 1:52:17 07:03 8.50
333 1112 VAN ACKER ROB V3 14 1:52:21 07:04 8.50
334 1111 CEUNEN HELGA A2 8 1:52:23 07:04 8.49
335 1337 PUTTEMANS FRANK SH 119 1:52:30 07:04 8.48
336 1115 MARCELLE ANN A1 33 1:52:34 07:05 8.48
337 1404 LINTERMANS BARBARA A1 34 1:52:38 07:05 8.47
338 1139 JANSSENS WENDY A1 35 1:52:38 07:05 8.47
339 1231 MEEUSSEN GRIET A1 36 1:52:38 07:05 8.47
340 1152 VANGEEL ERIC V2 44 1:52:55 07:06 8.45
341 1200 SMEULDERS NATALIE A1 37 1:52:57 07:06 8.45
342 1214 BERTELS SARAH SD 49 1:52:58 07:06 8.45
343 1116 BOONE BART V1 67 1:53:10 07:07 8.43
344 1144 BART MATTHYSSEN V2 45 1:53:28 07:08 8.41
345 1258 MEYLAERS JAN SH 120 1:53:39 07:09 8.40
346 1204 MOTTEUX ALEX SH 121 1:53:53 07:10 8.38
347 1365 VAN DEN PLAS HANS SH 122 1:54:45 07:13 8.32
348 1419 MORISSE HEIDI A1 38 1:54:58 07:14 8.30
349 1285 REYMEN BERT SH 123 1:55:10 07:14 8.29
350 1176 MARINUS LUTGARDE RITA A2 9 1:55:17 07:15 8.28
351 1202 DEGELIN PAUL SH 124 1:55:29 07:16 8.27
352 1000 SAADATMANDI ARASH SH 125 1:55:47 07:17 8.24
353 1135 VERRETH POL SH 126 1:55:47 07:17 8.24
354 1078 VAN DER AUWERA MARTINE A1 39 1:55:47 07:17 8.24
355 1224 DRAULANS VEERLE A2 10 1:55:59 07:17 8.23
356 1033 VAN NESPEN ANNE SD 50 1:56:02 07:18 8.23
357 1279 MAES MIEKE SD 51 1:56:03 07:18 8.23
358 1026 COENEN INES SD 52 1:56:04 07:18 8.22
359 1265 BLEYS DORIEN SD 53 1:56:05 07:18 8.22
360 1098 AMADORI BRUNO V2 46 1:56:22 07:19 8.20
361 1320 WOLFS MICHEL V1 68 1:56:38 07:20 8.18
362 1109 COBBAERT HEIDI A1 40 1:56:45 07:20 8.18
363 1104 SPIESSENS DIRK V2 47 1:56:45 07:20 8.18
364 1323 MAMPAEY MARTINE A2 11 1:56:47 07:20 8.17
365 1260 DE TAVERNIER JO V3 15 1:57:22 07:23 8.13
366 1319 VAN LOON NICK V2 48 1:57:26 07:23 8.13
367 1159 PLUYMERS WENDIE A1 41 1:58:10 07:26 8.08
368 1150 VERMEULEN ERNA A2 12 1:58:10 07:26 8.08
369 1012 VAN EETVELDE JURGEN V1 69 1:58:18 07:26 8.07
370 1003 DAMSIN SABRINA SD 54 1:58:58 07:29 8.02
371 1274 GENAR DIRK V2 49 1:59:50 07:32 7.97
372 1032 GENAR INGRID A2 13 1:59:52 07:32 7.96
373 1225 VAN GEET CHRIS A2 14 2:00:28 07:34 7.92
374 1272 SERRUYS ELINE SD 55 2:00:29 07:34 7.92
375 1180 VUYLSTEKE AXEL PIERRE SH 127 2:00:34 07:35 7.92
376 1179 CLIJSTERS CAROLINE SD 56 2:00:35 07:35 7.92
377 1250 RADELET HILDE A1 42 2:00:53 07:36 7.90
378 1383 SMETS ELSJE A2 15 2:00:54 07:36 7.90
379 1160 GEBRUERS HELGA A1 43 2:01:53 07:40 7.83
380 1294 DE MEIRSMAN SHAUN SH 128 2:02:08 07:41 7.82
381 1334 BLAVIER NATHALIE SD 57 2:02:08 07:41 7.82
382 1393 ROSIER DIRK V2 50 2:02:09 07:41 7.81
383 1251 VAN GAEVER PASCAL V2 51 2:02:30 07:42 7.79
384 1347 NR 1347 XXX   2:02:44 07:43 7.78
385 1209 RAYMAEKERS AURÉLIE SD 58 2:03:40 07:46 7.72
386 1261 POUDERS GREET SD 59 2:03:46 07:47 7.71
387 1367 NAGY MARIANNE A1 44 2:03:54 07:47 7.70
388 1247 JANSEN ANNEMIE SD 60 2:06:37 07:58 7.54
389 1392 DEEN ANJA A1 45 2:06:43 07:58 7.53
390 1395 WELLENS NADINE A2 16 2:07:01 07:59 7.52
391 1016 POTVLIEGE DANNY V3 16 2:07:44 08:02 7.47
392 586 LINSINGH KEVIN SH 129 2:08:10 08:03 7.45
393 1142 DAMS TOM V1 70 2:09:25 08:08 7.38
394 1394 VERDYCK VEERLE A1 46 2:09:30 08:08 7.37
395 1228 VAN HAUWERMEIREN HADEWYCH A1 47 2:09:49 08:10 7.35
396 1163 BART SARAZIN V1 71 2:10:43 08:13 7.30
397 1416 ROTEN KELLY A1 48 2:11:22 08:15 7.27
398 1015 VAN ELSACKER LUC V3 17 2:14:28 08:27 7.10
399 1220 BRUGHMANS GITTE SD 61 2:15:11 08:30 7.06
400 1018 CAPPUYNS SOPHIE SD 62 2:15:15 08:30 7.06
401 1286 GORISSEN MARIANNE SD 63 2:15:30 08:31 7.04
402 1129 AERTS NIKI SH 130 2:16:53 08:36 6.97
403 587 VERRYDT CHARLOTTE SD 64 2:22:53 08:59 6.68